Regional Weather Roundup
Issued by NWS

Home | Current Version | Previous Version | Text Only | Print | Product List | Glossary On
Versions: 1 2 3 4 5 6 7 8 9 10 11 12 13 14 15 16 17 18 19 20 21 22 23 24 25 26 27 28 29 30 31 32 33 34 35 36 37 38 39 40 41 42 43 44 45 46 47 48 49 50
000
ASCA42 TJSJ 260210
RWRPR
PUERTO RICO/U.S. VIRGIN ISLANDS HOURLY WEATHER ROUNDUP
NATIONAL WEATHER SERVICE SAN JUAN PR
1000 PM AST SUN JUN 25 2017

PRZ001>002-007>008-010-260300-
PUERTO RICO

CITY           SKY/WX    TMP DP  RH WIND       PRES   REMARKS
SAN JUAN LMM   LGT RAIN  75  70  83 SE9G21    30.12R
AGUADILLA      CLEAR     79  75  89 E9        30.09R
CEIBA          LGT RAIN  75  73  94 SE7       30.15R
$$

VIZ001>002-260300-
U.S. VIRGIN ISLANDS

CITY           SKY/WX    TMP DP  RH WIND       PRES   REMARKS
CHARLOTTE AMA  MOCLDY    82  77  83 VRB6G16   30.09R HX  91
CHRISTIANSTED  PTCLDY    77  75  94 N5        30.09S
$$

HOURLY WEATHER ROUNDUP FOR THE NEWS MEDIA

CITY           SKY/WX    TMP DP  RH WIND       PRES   REMARKS
ORLANDO        CLOUDY    80  74  81 E8        30.09R
NEW YORK       LGT RAIN  71  67  87 SW7       29.95S
NEWARK         PTCLDY    78  54  43 W9        29.94R
CHICAGO        PTCLDY    64  48  56 W15       30.10R
HARTFORD       CLEAR     67  58  72 SW12      29.93R
BOSTON         PTCLDY    71  57  61 W10       29.93R
DALLAS         PTCLDY    82  60  47 E8        30.13R
PHILADELPHIA   PTCLDY    78  52  40 W13       29.99R
LOS ANGELES    SUNNY     69  62  78 W8        29.87S
WASHINGTON DC  PTCLDY    71  47  42 NW6       30.04R


USA.gov is the U.S. government's official web portal to all federal, state and local government web resources and services.